Вернуться в каталог

KUIPER-00247

АктивенСвязьLEO
NORAD 67152·PAYLOAD·🇺🇸 United States

Запущен Dec 15, 2025 с Cape Canaveral Space Force Station

Loading…

Ближайшие Пролёты (ближайшие 24 часа)

TLE

СвежийSource: CelesTrak SupGP

Эпоха: Sep 14, 2026, 18:29 UTC

1 67152C 25301V   26257.77015046  .00000778  00000+0  10179-3 0  2573
2 67152  51.8954 301.9468 0000441  72.7930  31.3663 14.79932250    18

Отслеживайте KUIPER-00247 в реальном времени с AllMySat

Download on the App Store